• Em Portugal
  • Lista de países
  • Para 7 dias
  • Temperatura da água
  • Mapas de satélite
  • Mapa do tempo
  • Widgets de tempo
  • user-avatar
    Iniciar Sessão

    Previsão horária em Barreiro

    Hoje, 25 Novembro, Sábado

    Tempo Temperatura Precipitação Vento Pressão Humidade
    00:00 +15°C° 0 mm 2 m/s 762 mmHg 71%
    01:00 +15°C° 0 mm 1 m/s 762 mmHg 71%
    02:00 +15°C° 0 mm 1 m/s 762 mmHg 71%
    03:00 +15°C° 0 mm 1 m/s 762 mmHg 71%
    04:00 +15°C° 0 mm 2 m/s 762 mmHg 71%
    05:00 +15°C° 0 mm 2 m/s 762 mmHg 70%
    06:00 +16°C° 0 mm 2 m/s 763 mmHg 70%
    07:00 +16°C° 0 mm 2 m/s 763 mmHg 69%
    08:00 +17°C° 0 mm 2 m/s 763 mmHg 68%
    09:00 +18°C° 0,1 mm 1 m/s 764 mmHg 67%
    10:00 +19°C° 0,1 mm 1 m/s 764 mmHg 65%
    11:00 +20°C° 0,1 mm 1 m/s 764 mmHg 64%
    12:00 +20°C° 0,1 mm 1 m/s 764 mmHg 64%
    13:00 +21°C° 0,1 mm 1 m/s 764 mmHg 65%
    14:00 +21°C° 0,1 mm 1 m/s 764 mmHg 65%
    15:00 +20°C° 0,1 mm 1 m/s 764 mmHg 71%
    16:00 +19°C° 0,1 mm 1 m/s 764 mmHg 77%
    17:00 +18°C° 0,1 mm 1 m/s 764 mmHg 83%
    18:00 +18°C° 0 mm 1 m/s 765 mmHg 85%
    19:00 +16°C° 0 mm 1 m/s 765 mmHg 86%
    20:00 +16°C° 0 mm 1 m/s 765 mmHg 88%
    21:00 +16°C° 0 mm 1 m/s 765 mmHg 88%
    22:00 +16°C° 0 mm 1 m/s 766 mmHg 87%
    23:00 +16°C° 0 mm 2 m/s 766 mmHg 87%

    Amanhã, 26 Novembro, Domingo

    Tempo Temperatura Precipitação Vento Pressão Humidade
    00:00 +16°C° 0,1 mm 2 m/s 766 mmHg 87%
    01:00 +16°C° 0,1 mm 2 m/s 766 mmHg 88%
    02:00 +16°C° 0,1 mm 2 m/s 766 mmHg 88%
    03:00 +16°C° 0 mm 2 m/s 766 mmHg 88%
    04:00 +14°C° 0 mm 3 m/s 766 mmHg 88%
    05:00 +14°C° 0 mm 3 m/s 766 mmHg 88%
    06:00 +16°C° 0 mm 3 m/s 767 mmHg 85%
    07:00 +16°C° 0 mm 3 m/s 767 mmHg 82%
    08:00 +16°C° 0 mm 3 m/s 768 mmHg 80%
    09:00 +17°C° 0 mm 3 m/s 768 mmHg 74%
    10:00 +18°C° 0 mm 3 m/s 768 mmHg 69%
    11:00 +20°C° 0 mm 3 m/s 768 mmHg 63%
    12:00 +20°C° 0 mm 3 m/s 768 mmHg 61%
    13:00 +21°C° 0 mm 2 m/s 768 mmHg 59%
    14:00 +21°C° 0 mm 2 m/s 767 mmHg 56%
    15:00 +20°C° 0 mm 2 m/s 768 mmHg 60%
    16:00 +19°C° 0 mm 2 m/s 768 mmHg 63%
    17:00 +18°C° 0 mm 2 m/s 768 mmHg 67%
    18:00 +17°C° 0 mm 2 m/s 768 mmHg 66%
    19:00 +17°C° 0 mm 2 m/s 768 mmHg 65%
    20:00 +17°C° 0 mm 3 m/s 768 mmHg 65%
    21:00 +16°C° 0 mm 3 m/s 768 mmHg 63%
    22:00 +16°C° 0 mm 3 m/s 768 mmHg 62%
    23:00 +15°C° 0 mm 4 m/s 768 mmHg 61%

    Depois de amanhã, 27 Novembro, Segunda-feira

    Tempo Temperatura Precipitação Vento Pressão Humidade
    00:00 +14°C° 0 mm 4 m/s 768 mmHg 61%
    01:00 +14°C° 0 mm 4 m/s 767 mmHg 62%
    02:00 +14°C° 0 mm 4 m/s 767 mmHg 62%
    03:00 +14°C° 0 mm 4 m/s 767 mmHg 60%
    04:00 +14°C° 0 mm 4 m/s 767 mmHg 58%
    05:00 +14°C° 0 mm 3 m/s 767 mmHg 57%
    06:00 +14°C° 0 mm 3 m/s 767 mmHg 55%
    07:00 +14°C° 0 mm 3 m/s 768 mmHg 53%
    08:00 +14°C° 0 mm 3 m/s 768 mmHg 51%
    09:00 +17°C° 0 mm 3 m/s 768 mmHg 51%
    10:00 +18°C° 0 mm 3 m/s 768 mmHg 50%
    11:00 +19°C° 0 mm 3 m/s 768 mmHg 50%
    12:00 +20°C° 0,2 mm 3 m/s 767 mmHg 53%
    13:00 +20°C° 0,2 mm 2 m/s 767 mmHg 57%
    14:00 +20°C° 0,2 mm 2 m/s 766 mmHg 60%
    15:00 +19°C° 0,7 mm 2 m/s 766 mmHg 68%
    16:00 +18°C° 0,7 mm 2 m/s 766 mmHg 76%
    17:00 +17°C° 0,7 mm 2 m/s 766 mmHg 84%
    18:00 +17°C° 0,3 mm 2 m/s 766 mmHg 85%
    19:00 +16°C° 0,3 mm 3 m/s 766 mmHg 86%
    20:00 +16°C° 0,3 mm 3 m/s 766 mmHg 87%
    21:00 +16°C° 0 mm 3 m/s 765 mmHg 87%
    22:00 +15°C° 0 mm 4 m/s 765 mmHg 88%
    23:00 +14°C° 0 mm 4 m/s 765 mmHg 89%

    28 Novembro, Terça-feira

    Tempo Temperatura Precipitação Vento Pressão Humidade
    00:00 +14°C° 0,2 mm 4 m/s 764 mmHg 89%
    01:00 +14°C° 0,2 mm 4 m/s 764 mmHg 89%
    02:00 +15°C° 0,2 mm 4 m/s 763 mmHg 89%
    03:00 +14°C° 0,6 mm 4 m/s 763 mmHg 89%
    04:00 +14°C° 0,6 mm 4 m/s 762 mmHg 90%
    05:00 +14°C° 0,6 mm 4 m/s 762 mmHg 90%
    06:00 +14°C° 0,6 mm 5 m/s 762 mmHg 90%
    07:00 +14°C° 0,6 mm 5 m/s 761 mmHg 89%
    08:00 +14°C° 0,6 mm 5 m/s 761 mmHg 89%
    09:00 +15°C° 1,5 mm 5 m/s 761 mmHg 88%
    10:00 +15°C° 1,5 mm 5 m/s 760 mmHg 87%
    11:00 +16°C° 1,5 mm 6 m/s 760 mmHg 86%
    12:00 +16°C° 1 mm 6 m/s 759 mmHg 87%
    13:00 +16°C° 1 mm 5 m/s 758 mmHg 87%
    14:00 +16°C° 1 mm 5 m/s 757 mmHg 88%
    15:00 +16°C° 1,2 mm 5 m/s 756 mmHg 89%
    16:00 +16°C° 1,2 mm 5 m/s 756 mmHg 90%
    17:00 +17°C° 1,2 mm 4 m/s 756 mmHg 91%
    18:00 +17°C° 1,2 mm 4 m/s 755 mmHg 92%
    19:00 +17°C° 1,2 mm 4 m/s 755 mmHg 92%
    20:00 +15°C° 1,2 mm 4 m/s 755 mmHg 93%
    21:00 +16°C° 0,3 mm 3 m/s 755 mmHg 93%
    22:00 +16°C° 0,3 mm 3 m/s 754 mmHg 94%
    23:00 +14°C° 0,3 mm 3 m/s 754 mmHg 94%

    29 Novembro, Quarta-feira

    Tempo Temperatura Precipitação Vento Pressão Humidade
    00:00 +14°C° 0,4 mm 3 m/s 754 mmHg 94%
    01:00 +14°C° 0,4 mm 4 m/s 753 mmHg 95%
    02:00 +13°C° 0,4 mm 4 m/s 753 mmHg 95%
    03:00 +13°C° 0,2 mm 4 m/s 753 mmHg 94%
    04:00 +13°C° 0,2 mm 5 m/s 753 mmHg 92%
    05:00 +13°C° 0,2 mm 5 m/s 753 mmHg 91%
    06:00 +13°C° 0 mm 5 m/s 753 mmHg 87%
    07:00 +13°C° 0 mm 6 m/s 754 mmHg 84%
    08:00 +13°C° 0 mm 6 m/s 754 mmHg 80%
    09:00 +14°C° 0 mm 7 m/s 755 mmHg 74%
    10:00 +15°C° 0 mm 7 m/s 755 mmHg 67%
    11:00 +16°C° 0 mm 7 m/s 755 mmHg 61%
    12:00 +16°C° 0 mm 8 m/s 755 mmHg 58%
    13:00 +16°C° 0 mm 8 m/s 755 mmHg 55%
    14:00 +15°C° 0 mm 9 m/s 755 mmHg 52%
    15:00 +13°C° 0 mm 8 m/s 755 mmHg 55%
    16:00 +12°C° 0 mm 8 m/s 756 mmHg 58%
    17:00 +10°C° 0 mm 8 m/s 756 mmHg 60%
    18:00 +10°C° 0 mm 8 m/s 756 mmHg 61%
    19:00 +10°C° 0 mm 7 m/s 757 mmHg 61%
    20:00 +10°C° 0 mm 7 m/s 758 mmHg 62%
    21:00 +9°C° 0 mm 7 m/s 758 mmHg 62%
    22:00 +9°C° 0 mm 6 m/s 758 mmHg 62%
    23:00 +9°C° 0 mm 6 m/s 758 mmHg 62%

    30 Novembro, Quinta-feira

    Tempo Temperatura Precipitação Vento Pressão Humidade
    00:00 +8°C° 0 mm 6 m/s 758 mmHg 63%
    01:00 +8°C° 0 mm 5 m/s 759 mmHg 64%
    02:00 +8°C° 0 mm 5 m/s 759 mmHg 65%
    03:00 +7°C° 0 mm 5 m/s 759 mmHg 65%
    04:00 +7°C° 0 mm 5 m/s 760 mmHg 66%
    05:00 +7°C° 0 mm 5 m/s 760 mmHg 67%
    06:00 +7°C° 0 mm 5 m/s 761 mmHg 64%
    07:00 +8°C° 0 mm 4 m/s 761 mmHg 62%
    08:00 +8°C° 0 mm 4 m/s 762 mmHg 59%
    09:00 +11°C° 0 mm 4 m/s 762 mmHg 53%
    10:00 +12°C° 0 mm 4 m/s 763 mmHg 47%
    11:00 +14°C° 0 mm 5 m/s 763 mmHg 41%
    12:00 +14°C° 0 mm 5 m/s 763 mmHg 40%
    13:00 +15°C° 0 mm 5 m/s 763 mmHg 39%
    14:00 +15°C° 0 mm 5 m/s 763 mmHg 37%
    15:00 +13°C° 0 mm 5 m/s 764 mmHg 42%
    16:00 +12°C° 0 mm 5 m/s 764 mmHg 47%
    17:00 +9°C° 0 mm 5 m/s 764 mmHg 52%
    18:00 +9°C° 0 mm 5 m/s 765 mmHg 55%
    19:00 +8°C° 0 mm 5 m/s 765 mmHg 57%
    20:00 +7°C° 0 mm 4 m/s 766 mmHg 60%
    21:00 +7°C° 0 mm 4 m/s 766 mmHg 62%
    22:00 +6°C° 0 mm 4 m/s 766 mmHg 63%
    23:00 +7°C° 0 mm 3 m/s 767 mmHg 65%
    Mostrar mais